Lid_Strength_Index
8 11 14 10 8 8 8 10 10 8 8 9 10 10 8 6 6 6 6 5 4 4 3 5 5 5 1 1 1 1 1 1 0 1 1 1 1 1 0 -0 -1 -1 -1 -1
11 13 10 8 7 9 9 11 12 10 8 9 9 9 7 6 6 6 5 5 5 4 4 5 5 6 5 1 1 1 1 1 1 1 0 0 0 0 -0 -1 -0 -1 -1 -1
13 11 8 9 9 10 10 11 11 11 9 8 9 10 9 7 6 5 5 4 4 4 4 4 5 5 5 4 2 2 1 1 0 0 0 1 0 0 1 0 0 0 1 1
10 9 9 10 10 8 12 8 9 10 12 15 9 14 10 8 8 7 6 5 5 4 3 3 5 6 5 4 3 4 3 2 2 2 1 1 2 2 1 1 1 2 2 2
13 11 11 11 9 8 10 8 9 10 11 11 12 14 10 8 9 8 6 6 5 4 4 3 5 5 4 3 3 3 3 3 3 3 3 2 3 3 3 3 3 3 2 3
10 7 9 9 8 8 7 9 9 9 11 16 12 12 11 10 9 7 6 6 5 4 4 3 4 5 5 3 3 3 3 3 3 3 3 3 2 3 4 4 4 3 3 3
12 11 9 8 10 8 8 11 17 18 18 17 11 12 11 8 7 6 6 5 5 4 4 3 4 5 5 4 4 3 4 4 3 3 3 3 3 3 3 4 4 4 4 4
16 17 11 8 10 11 10 10 15 19 18 15 11 15 11 7 6 6 5 5 5 4 4 3 4 4 4 4 4 4 4 4 4 4 4 4 4 4 5 5 5 5 5 5
15 16 9 9 8 9 11 13 9 14 13 15 13 10 8 7 7 6 6 6 6 6 5 5 4 4 4 4 4 5 4 5 5 5 5 5 5 5 6 6 6 6 7 7
11 16 11 9 8 8 10 8 13 14 19 18 14 13 11 9 8 7 7 7 7 6 5 6 6 5 4 4 4 4 4 5 5 5 5 6 6 6 7 7 7 7 7 7
9 11 13 10 13 12 11 12 11 11 13 16 16 13 8 8 7 7 6 5 6 6 6 6 5 5 5 5 5 5 5 6 6 6 6 7 7 8 8 8 8 8 8 8
8 11 16 13 9 8 9 10 10 15 15 13 14 13 7 6 6 6 6 5 5 5 4 4 4 4 5 5 5 5 6 6 6 7 7 7 8 8 8 8 8 8 8 8
8 12 17 16 11 9 11 10 10 10 12 15 15 13 7 6 6 6 6 5 5 4 4 4 3 4 4 4 5 6 6 6 6 7 7 8 8 8 8 8 8 9 9 9
7 10 13 16 14 11 13 11 10 12 16 14 13 11 9 7 7 6 5 5 4 4 4 4 4 3 3 3 3 4 4 5 6 7 7 7 7 7 8 8 8 9 9 9
8 13 12 11 11 11 12 11 11 14 12 15 12 11 8 7 6 6 5 5 5 5 5 4 4 3 3 3 4 4 4 4 5 6 6 6 6 6 7 7 8 8 9 9
7 13 12 13 10 11 13 11 10 11 11 11 11 11 7 6 5 6 6 5 5 5 4 4 4 3 3 3 3 4 4 5 5 5 6 6 6 6 7 7 8 8 9 9
9 11 13 15 12 12 14 11 11 10 9 10 13 9 7 7 6 6 6 5 5 5 4 4 4 3 3 3 3 4 4 4 5 6 6 6 6 7 7 8 8 9 10 10
9 10 11 14 12 18 11 9 9 10 9 8 8 8 7 7 6 5 5 5 5 4 4 4 3 3 2 2 3 3 4 5 6 6 6 6 7 7 8 9 9 10 10 11
7 9 12 15 14 12 11 10 11 11 11 9 9 8 7 6 7 7 5 4 4 4 4 4 3 3 2 3 3 4 5 6 6 7 7 7 7 8 9 10 10 11 11 12
8 8 11 13 16 17 11 8 7 8 12 7 7 7 7 8 10 8 6 5 5 4 4 4 3 3 3 4 4 5 6 6 7 6 7 7 7 8 9 9 10 11 11 12
12 11 14 13 15 12 8 7 7 13 12 7 6 6 7 8 7 7 6 6 6 6 5 4 4 5 4 4 5 5 6 6 6 6 6 7 7 8 8 9 11 12 13 13
12 13 13 12 15 16 7 8 11 8 6 6 5 5 6 6 6 5 6 7 7 7 6 5 5 5 5 5 5 6 6 5 6 7 7 8 8 9 10 11 12 13 13 13
12 9 11 10 11 6 6 6 5 5 6 5 5 5 5 6 5 5 6 6 6 6 7 6 6 6 6 6 6 6 6 6 7 7 8 8 9 10 11 12 13 13 13 13
8 7 9 10 8 7 6 5 5 5 5 5 5 4 4 5 5 5 5 5 5 6 6 6 6 6 7 6 6 6 7 7 8 8 8 9 10 11 11 12 12 13 13 12
8 8 9 9 7 7 6 5 6 5 5 5 4 4 4 4 5 5 6 6 6 6 6 6 6 7 7 7 7 7 7 8 9 9 9 9 10 10 12 12 12 12 11 11
7 8 10 10 6 7 6 5 5 5 6 5 5 5 5 4 5 5 5 5 5 5 6 5 6 7 8 9 9 9 9 9 9 10 10 10 10 10 11 12 12 10 10 10